sat.trackr.live / text

‹ back to catalog

2025-313AE

NORAD 67276 · 2025-313AE

PAYLOAD ACTIVE UNKNOWN

§ Identity

Operator
Country
TBD
Launch date
2025-12-28
Launch site
VOSTO
Launch vehicle
Mass (kg)
RCS (m²)

External: N2YO · Heavens-Above · Gunter

§ Orbital elements

Epoch: 2026-09-20T13:00:51.308928Z

Period
94.51 min
Inclination
97.3824°
Eccentricity
0.0014203
Mean motion
15.23671244 rev/d
Perigee alt
485.0 km
Apogee alt
504.5 km
Semi-major
6,872.9 km
B*
1.8050e-4
RAAN
336.5522°
Arg perigee
38.0363°
Mean anomaly
322.1875°
Rev number
4,046

§ Raw data

2025-313AE1 67276U 25313AE  26263.54226052  .00004270  00000+0  18050-3 0  99962 67276  97.3824 336.5522 0014203  38.0363 322.1875 15.23671244 40469

JSON: /api/v1/satellites/67276 · /tle

For live sub-satellite position, see the globe view (requires WebGL).

§ Visibility from observer

Set your observer location to see the next 7 days of passes ≥ 10°. The values pass through the URL so the page stays shareable.

No JS? Fill the form by hand. The geolocation button needs JavaScript.